time, Switch, Flow(0), Analog(2)
yyyy/mm/dd HH:MM:SS.fff, True=FILTERED|False=TOTAL, L/min, V
2023/06/20 13:00:03.645, True, 3.649, 0.132906
2023/06/20 13:00:04.141, True, 3.032, 0.132296
2023/06/20 13:00:04.645, True, 1.658, 0.131228
2023/06/20 13:00:05.149, True, 1.986, 0.132143
2023/06/20 13:00:05.653, True, 1.658, 0.132525
2023/06/20 13:00:06.149, True, 1.688, 0.133440
2023/06/20 13:00:06.653, True, 1.658, 0.135195
2023/06/20 13:00:07.156, True, 1.986, 0.131533
2023/06/20 13:00:07.653, True, 1.685, 0.133593
2023/06/20 13:00:08.157, True, 1.660, 0.134127
2023/06/20 13:00:08.661, True, 1.656, 0.130922
2023/06/20 13:00:09.157, True, 1.685, 0.132143
2023/06/20 13:00:09.661, True, 1.659, 0.131609
2023/06/20 13:00:10.165, True, 1.657, 0.133135
2023/06/20 13:00:10.661, True, 1.686, 0.131380
2023/06/20 13:00:11.165, True, 1.326, 0.132448
2023/06/20 13:00:11.669, True, 1.658, 0.131685
2023/06/20 13:00:12.165, True, 2.022, 0.133593
2023/06/20 13:00:12.669, True, 1.660, 0.132296
2023/06/20 13:00:13.172, True, 1.657, 0.133288
2023/06/20 13:00:13.669, True, 1.683, 0.132219
2023/06/20 13:00:14.173, True, 1.658, 0.131456
2023/06/20 13:00:14.677, True, 1.658, 0.132219
2023/06/20 13:00:15.173, True, 1.685, 0.132372
2023/06/20 13:00:15.677, True, 1.658, 0.131685
2023/06/20 13:00:16.173, True, 1.685, 0.133288
2023/06/20 13:00:16.677, True, 1.658, 0.133364
2023/06/20 13:00:17.180, True, 1.989, 0.132448
2023/06/20 13:00:17.676, True, 1.685, 0.133898
2023/06/20 13:00:18.180, True, 1.658, 0.132982
2023/06/20 13:00:18.684, True, 1.658, 0.133364
2023/06/20 13:00:19.180, True, 1.685, 0.134051
2023/06/20 13:00:19.684, True, 1.658, 0.132677
2023/06/20 13:00:20.189, True, 1.658, 0.132753
2023/06/20 13:00:20.685, True, 1.685, 0.132448
2023/06/20 13:00:21.189, True, 1.658, 0.132448
2023/06/20 13:00:21.693, True, 1.658, 0.132448
2023/06/20 13:00:22.189, True, 2.022, 0.132296
2023/06/20 13:00:22.693, True, 1.658, 0.133440
2023/06/20 13:00:23.197, True, 1.658, 0.131533
2023/06/20 13:00:23.692, True, 1.684, 0.131914
2023/06/20 13:00:24.197, True, 1.660, 0.135042
2023/06/20 13:00:24.701, True, 1.656, 0.133440
2023/06/20 13:00:25.196, True, 1.685, 0.131762
2023/06/20 13:00:25.701, True, 1.658, 0.133135
2023/06/20 13:00:26.204, True, 1.990, 0.131304
2023/06/20 13:00:26.701, True, 1.686, 0.133288
2023/06/20 13:00:27.205, True, 1.658, 0.132296
2023/06/20 13:00:27.709, True, 1.656, 0.134127
2023/06/20 13:00:28.205, True, 1.686, 0.130083
2023/06/20 13:00:28.709, True, 1.989, 0.134203
2023/06/20 13:00:29.213, True, 1.658, 0.134585
2023/06/20 13:00:29.709, True, 1.684, 0.131762
2023/06/20 13:00:30.213, True, 1.659, 0.130846
2023/06/20 13:00:30.717, True, 1.989, 0.132677
2023/06/20 13:00:31.213, True, 1.688, 0.132296
2023/06/20 13:00:31.717, True, 1.655, 0.133288
2023/06/20 13:00:32.221, True, 1.658, 0.131685
2023/06/20 13:00:32.717, True, 1.685, 0.130999
2023/06/20 13:00:33.220, True, 1.658, 0.132601
2023/06/20 13:00:33.724, True, 1.659, 0.134737
2023/06/20 13:00:34.221, True, 2.020, 0.135119
2023/06/20 13:00:34.725, True, 1.658, 0.129320
2023/06/20 13:00:35.229, True, 1.661, 0.132753
2023/06/20 13:00:35.733, True, 1.658, 0.133669
2023/06/20 13:00:36.229, True, 2.019, 0.132143
2023/06/20 13:00:36.733, True, 1.658, 0.134432
2023/06/20 13:00:37.237, True, 1.658, 0.133822
2023/06/20 13:00:37.733, True, 1.685, 0.134813
2023/06/20 13:00:38.237, True, 1.658, 0.134737
2023/06/20 13:00:38.741, True, 1.659, 0.135119
2023/06/20 13:00:39.237, True, 1.684, 0.136416
2023/06/20 13:00:39.741, True, 1.990, 0.135882
2023/06/20 13:00:40.244, True, 1.659, 0.134737
2023/06/20 13:00:40.741, True, 1.347, 0.136721
2023/06/20 13:00:41.245, True, 1.990, 0.137331
2023/06/20 13:00:41.749, True, 1.661, 0.136339
2023/06/20 13:00:42.245, True, 1.682, 0.137255
2023/06/20 13:00:42.749, True, 1.658, 0.135805
2023/06/20 13:00:43.253, True, 1.658, 0.136721
2023/06/20 13:00:43.749, True, 1.685, 0.137255
2023/06/20 13:00:44.253, True, 1.658, 0.137560
2023/06/20 13:00:44.748, True, 1.685, 0.138628
2023/06/20 13:00:45.252, True, 1.658, 0.139467
2023/06/20 13:00:45.757, True, 1.990, 0.139467
2023/06/20 13:00:46.261, True, 1.658, 0.138552
2023/06/20 13:00:46.757, True, 1.688, 0.137331
2023/06/20 13:00:47.261, True, 1.656, 0.140078
2023/06/20 13:00:47.765, True, 1.989, 0.140612
2023/06/20 13:00:48.261, True, 1.685, 0.141756
2023/06/20 13:00:48.765, True, 1.658, 0.138933
2023/06/20 13:00:49.268, True, 1.659, 0.142977
2023/06/20 13:00:49.765, True, 1.684, 0.141222
2023/06/20 13:00:50.269, True, 1.990, 0.144045
2023/06/20 13:00:50.773, True, 1.658, 0.142519
2023/06/20 13:00:51.269, True, 1.685, 0.142061
2023/06/20 13:00:51.773, True, 1.658, 0.141070
2023/06/20 13:00:52.277, True, 1.658, 0.141680
2023/06/20 13:00:52.773, True, 1.685, 0.142901
2023/06/20 13:00:53.277, True, 1.658, 0.142443
2023/06/20 13:00:53.780, True, 1.658, 0.139620
2023/06/20 13:00:54.277, True, 1.685, 0.142367
2023/06/20 13:00:54.781, True, 1.989, 0.143664
2023/06/20 13:00:55.284, True, 1.658, 0.145571
2023/06/20 13:00:55.781, True, 1.685, 0.142367
2023/06/20 13:00:56.284, True, 1.658, 0.140841
2023/06/20 13:00:56.789, True, 1.658, 0.144198
2023/06/20 13:00:57.293, True, 1.990, 0.141375
2023/06/20 13:00:57.789, True, 1.685, 0.143435
2023/06/20 13:00:58.293, True, 1.658, 0.143969
2023/06/20 13:00:58.797, True, 1.658, 0.143282
2023/06/20 13:00:59.293, True, 1.685, 0.144121
2023/06/20 13:00:59.797, True, 1.990, 0.142443
2023/06/20 13:01:00.301, True, 1.658, 0.142519
2023/06/20 13:01:00.797, True, 1.685, 0.142748
2023/06/20 13:01:01.301, True, 1.658, 0.144961
2023/06/20 13:01:01.805, True, 1.991, 0.142596
2023/06/20 13:01:02.301, True, 1.683, 0.144121
2023/06/20 13:01:02.805, True, 1.658, 0.143435
2023/06/20 13:01:03.309, True, 1.658, 0.143816
2023/06/20 13:01:03.804, True, 2.022, 0.144121
2023/06/20 13:01:04.309, True, 1.658, 0.144732
2023/06/20 13:01:04.813, True, 1.658, 0.142824
2023/06/20 13:01:05.309, True, 1.685, 0.144961
2023/06/20 13:01:05.813, True, 1.658, 0.142214
2023/06/20 13:01:06.317, True, 1.991, 0.144350
2023/06/20 13:01:06.821, True, 1.657, 0.145113
2023/06/20 13:01:07.317, True, 1.685, 0.141909
2023/06/20 13:01:07.821, True, 1.658, 0.144121
2023/06/20 13:01:08.325, True, 1.658, 0.143969
2023/06/20 13:01:08.821, True, 1.685, 0.143282
2023/06/20 13:01:09.325, True, 1.989, 0.143816
2023/06/20 13:01:09.821, True, 1.685, 0.142596
2023/06/20 13:01:10.325, True, 1.658, 0.141299
2023/06/20 13:01:10.829, True, 1.658, 0.142748
2023/06/20 13:01:11.333, True, 1.989, 0.143587
2023/06/20 13:01:11.829, True, 1.685, 0.143359
2023/06/20 13:01:12.333, True, 1.658, 0.142214
2023/06/20 13:01:12.837, True, 1.658, 0.143282
2023/06/20 13:01:13.333, True, 2.022, 0.146792
2023/06/20 13:01:13.837, True, 1.658, 0.144121
2023/06/20 13:01:14.341, True, 1.326, 0.143206
2023/06/20 13:01:14.837, True, 1.685, 0.143511
2023/06/20 13:01:15.341, True, 1.658, 0.143282
2023/06/20 13:01:15.845, True, 1.990, 0.143969
2023/06/20 13:01:16.340, True, 1.684, 0.144198
2023/06/20 13:01:16.845, True, 1.658, 0.146181
2023/06/20 13:01:17.349, True, 1.661, 0.142748
2023/06/20 13:01:17.845, True, 1.682, 0.141909
2023/06/20 13:01:18.349, True, 1.659, 0.144884
2023/06/20 13:01:18.853, True, 1.991, 0.144656
2023/06/20 13:01:19.349, True, 1.683, 0.142977
2023/06/20 13:01:19.853, True, 1.658, 0.145037
2023/06/20 13:01:20.357, True, 1.660, 0.144427
2023/06/20 13:01:20.853, True, 1.683, 0.144808
2023/06/20 13:01:21.357, True, 1.658, 0.143816
2023/06/20 13:01:21.853, True, 1.685, 0.143740
2023/06/20 13:01:22.356, True, 1.658, 0.144656
2023/06/20 13:01:22.861, True, 1.658, 0.143816
2023/06/20 13:01:23.357, True, 1.685, 0.142977
2023/06/20 13:01:23.860, True, 1.658, 0.144274
2023/06/20 13:01:24.365, True, 1.658, 0.143740
2023/06/20 13:01:24.868, True, 1.658, 0.144427
2023/06/20 13:01:25.364, True, 1.685, 0.143053
2023/06/20 13:01:25.868, True, 1.659, 0.144427
2023/06/20 13:01:26.365, True, 1.684, 0.143130
2023/06/20 13:01:26.868, True, 1.658, 0.143206
2023/06/20 13:01:27.372, True, 1.658, 0.146181
2023/06/20 13:01:27.876, True, 1.658, 0.144045
2023/06/20 13:01:28.373, True, 1.685, 0.141833
2023/06/20 13:01:28.876, True, 1.992, 0.143587
2023/06/20 13:01:29.372, True, 1.682, 0.143740
2023/06/20 13:01:29.876, True, 1.658, 0.142596
2023/06/20 13:01:30.381, True, 1.659, 0.139315
2023/06/20 13:01:30.877, True, 1.685, 0.143359
2023/06/20 13:01:31.380, True, 1.657, 0.143664
2023/06/20 13:01:31.884, True, 1.991, 0.142214
2023/06/20 13:01:32.389, True, 1.660, 0.144808
2023/06/20 13:01:32.885, True, 1.682, 0.143740
2023/06/20 13:01:33.389, True, 1.991, 0.141451
2023/06/20 13:01:33.893, True, 1.661, 0.143816
2023/06/20 13:01:34.388, True, 1.684, 0.143435
2023/06/20 13:01:34.893, True, 1.325, 0.143130
2023/06/20 13:01:35.396, True, 1.992, 0.145418
2023/06/20 13:01:35.893, True, 1.684, 0.143740
2023/06/20 13:01:36.397, True, 1.657, 0.144884
2023/06/20 13:01:36.901, True, 1.992, 0.141604
2023/06/20 13:01:37.404, True, 1.659, 0.142672
2023/06/20 13:01:37.901, True, 1.682, 0.141985
2023/06/20 13:01:38.405, True, 1.992, 0.143511
2023/06/20 13:01:38.900, True, 1.683, 0.144121
2023/06/20 13:01:39.405, True, 1.661, 0.141070
2023/06/20 13:01:39.908, True, 1.655, 0.144274
2023/06/20 13:01:40.413, True, 1.659, 0.141222
2023/06/20 13:01:40.908, True, 1.683, 0.144121
2023/06/20 13:01:41.413, True, 1.990, 0.142214
2023/06/20 13:01:41.908, True, 1.685, 0.144579
2023/06/20 13:01:42.413, True, 1.658, 0.143053
2023/06/20 13:01:42.917, True, 1.661, 0.142672
2023/06/20 13:01:43.413, True, 1.684, 0.143740
2023/06/20 13:01:43.917, True, 1.656, 0.144961
2023/06/20 13:01:44.421, True, 1.658, 0.140993
2023/06/20 13:01:44.917, True, 1.348, 0.142977
2023/06/20 13:01:45.421, True, 1.990, 0.142290
2023/06/20 13:01:45.925, True, 1.658, 0.141527
2023/06/20 13:01:46.420, True, 1.685, 0.142596
2023/06/20 13:01:46.925, True, 1.329, 0.142061
2023/06/20 13:01:47.429, True, 1.655, 0.140459
2023/06/20 13:01:47.933, True, 1.989, 0.142290
2023/06/20 13:01:48.429, True, 1.685, 0.142443
2023/06/20 13:01:48.933, True, 1.658, 0.143435
2023/06/20 13:01:49.437, True, 1.658, 0.143206
2023/06/20 13:01:49.933, True, 1.685, 0.143359
2023/06/20 13:01:50.437, True, 1.990, 0.142367
2023/06/20 13:01:50.933, True, 1.685, 0.142824
2023/06/20 13:01:51.436, True, 1.659, 0.142901
2023/06/20 13:01:51.941, True, 1.659, 0.142138
2023/06/20 13:01:52.437, True, 1.683, 0.142672
2023/06/20 13:01:52.940, True, 1.657, 0.142061
2023/06/20 13:01:53.445, True, 1.990, 0.144198
2023/06/20 13:01:53.940, True, 1.684, 0.142672
2023/06/20 13:01:54.445, True, 1.658, 0.143206
2023/06/20 13:01:54.949, True, 1.660, 0.142214
2023/06/20 13:01:55.445, True, 1.684, 0.144808
2023/06/20 13:01:55.948, True, 1.657, 0.140993
2023/06/20 13:01:56.453, True, 1.658, 0.140459
2023/06/20 13:01:56.949, True, 2.022, 0.140764
2023/06/20 13:01:57.453, True, 1.658, 0.142672
2023/06/20 13:01:57.957, True, 1.659, 0.142977
2023/06/20 13:01:58.453, True, 2.021, 0.142977
2023/06/20 13:01:58.957, True, 1.658, 0.143053
2023/06/20 13:01:59.460, True, 1.658, 0.140688
2023/06/20 13:01:59.957, True, 1.687, 0.142977
2023/06/20 13:02:00.460, True, 1.987, 0.142672
2023/06/20 13:02:00.965, True, 1.658, 0.143053
2023/06/20 13:02:01.461, True, 2.022, 0.141527
2023/06/20 13:02:01.964, True, 1.661, 0.140993
2023/06/20 13:02:02.468, True, 1.655, 0.143435
2023/06/20 13:02:02.965, True, 1.685, 0.140688
2023/06/20 13:02:03.469, True, 1.658, 0.144198
2023/06/20 13:02:03.973, True, 1.990, 0.143053
2023/06/20 13:02:04.469, True, 1.685, 0.142596
2023/06/20 13:02:04.972, True, 1.660, 0.140307
2023/06/20 13:02:05.476, True, 1.657, 0.141299
2023/06/20 13:02:05.973, True, 1.685, 0.141375
2023/06/20 13:02:06.477, True, 1.990, 0.143359
2023/06/20 13:02:06.981, True, 1.658, 0.143359
2023/06/20 13:02:07.477, True, 1.688, 0.142290
2023/06/20 13:02:07.981, True, 1.986, 0.139773
2023/06/20 13:02:08.485, True, 1.658, 0.141833
2023/06/20 13:02:08.981, True, 1.685, 0.142672
2023/06/20 13:02:09.484, True, 1.658, 0.141680
2023/06/20 13:02:09.981, True, 1.348, 0.143587
2023/06/20 13:02:10.485, True, 1.658, 0.142290
2023/06/20 13:02:10.988, True, 1.327, 0.141604
2023/06/20 13:02:11.493, True, 1.658, 0.142596
2023/06/20 13:02:11.989, True, 1.688, 0.142748
2023/06/20 13:02:12.493, True, 1.986, 0.141375
2023/06/20 13:02:12.997, True, 1.326, 0.141833
2023/06/20 13:02:13.493, True, 2.022, 0.140688
2023/06/20 13:02:13.996, True, 1.658, 0.141604
2023/06/20 13:02:14.501, True, 1.658, 0.143206
2023/06/20 13:02:14.997, True, 1.348, 0.142824
2023/06/20 13:02:15.500, True, 1.658, 0.141756
2023/06/20 13:02:16.005, True, 1.990, 0.140536
2023/06/20 13:02:16.501, True, 1.685, 0.142061
2023/06/20 13:02:17.005, True, 1.658, 0.144045
2023/06/20 13:02:17.509, True, 1.658, 0.140841
2023/06/20 13:02:18.004, True, 2.022, 0.138170
2023/06/20 13:02:18.509, True, 1.658, 0.140993
2023/06/20 13:02:19.004, True, 1.685, 0.142672
2023/06/20 13:02:19.509, True, 1.658, 0.140307
2023/06/20 13:02:20.013, True, 1.658, 0.142901
2023/06/20 13:02:20.509, True, 1.684, 0.141680
2023/06/20 13:02:21.012, True, 1.990, 0.141222
2023/06/20 13:02:21.517, True, 1.658, 0.139467
2023/06/20 13:02:22.012, True, 1.685, 0.141222
2023/06/20 13:02:22.516, True, 1.658, 0.141680
2023/06/20 13:02:23.020, True, 1.989, 0.141527
2023/06/20 13:02:23.517, True, 1.685, 0.139773
2023/06/20 13:02:24.020, True, 1.658, 0.141833
2023/06/20 13:02:24.525, True, 1.659, 0.142748
2023/06/20 13:02:25.020, True, 1.684, 0.143587
2023/06/20 13:02:25.525, True, 1.658, 0.142519
2023/06/20 13:02:26.028, True, 1.989, 0.139773
2023/06/20 13:02:26.525, True, 1.685, 0.139925
2023/06/20 13:02:27.029, True, 1.658, 0.141527
2023/06/20 13:02:27.533, True, 1.658, 0.142214
2023/06/20 13:02:28.036, True, 1.658, 0.142367
2023/06/20 13:02:28.532, True, 2.022, 0.139696
2023/06/20 13:02:29.037, True, 1.658, 0.141451
2023/06/20 13:02:29.541, True, 1.659, 0.143435
2023/06/20 13:02:30.036, True, 1.684, 0.141527
2023/06/20 13:02:30.541, True, 1.658, 0.141833
2023/06/20 13:02:31.045, True, 1.991, 0.140459
2023/06/20 13:02:31.540, True, 1.683, 0.139315
2023/06/20 13:02:32.045, True, 1.658, 0.139010
2023/06/20 13:02:32.548, True, 1.658, 0.139391
2023/06/20 13:02:33.045, True, 1.687, 0.140917
2023/06/20 13:02:33.548, True, 1.987, 0.139010
2023/06/20 13:02:34.052, True, 1.658, 0.140612
2023/06/20 13:02:34.549, True, 2.022, 0.140688
2023/06/20 13:02:35.052, True, 1.661, 0.140459
2023/06/20 13:02:35.555, True, 1.659, 0.140383
2023/06/20 13:02:36.052, True, 2.018, 0.142214
2023/06/20 13:02:36.556, True, 1.658, 0.139467
2023/06/20 13:02:37.061, True, 1.326, 0.141527
2023/06/20 13:02:37.556, True, 1.685, 0.139696
2023/06/20 13:02:38.060, True, 1.990, 0.140078
2023/06/20 13:02:38.565, True, 1.658, 0.139696
2023/06/20 13:02:39.061, True, 1.685, 0.139696
2023/06/20 13:02:39.564, True, 1.992, 0.140993
2023/06/20 13:02:40.068, True, 1.656, 0.140536
2023/06/20 13:02:40.565, True, 1.685, 0.139696
2023/06/20 13:02:41.068, True, 1.658, 0.140230
2023/06/20 13:02:41.573, True, 1.658, 0.140459
2023/06/20 13:02:42.069, True, 1.685, 0.140078
2023/06/20 13:02:42.573, True, 1.990, 0.138933
2023/06/20 13:02:43.069, True, 1.685, 0.137789
2023/06/20 13:02:43.573, True, 1.658, 0.139086
2023/06/20 13:02:44.076, True, 1.658, 0.141146
2023/06/20 13:02:44.580, True, 1.989, 0.139620
2023/06/20 13:02:45.076, True, 1.687, 0.139849
2023/06/20 13:02:45.581, True, 1.656, 0.139544
2023/06/20 13:02:46.084, True, 1.658, 0.140993
2023/06/20 13:02:46.581, True, 2.021, 0.141985
2023/06/20 13:02:47.085, True, 1.658, 0.138857
2023/06/20 13:02:47.588, True, 1.658, 0.139467
2023/06/20 13:02:48.093, True, 1.989, 0.140230
2023/06/20 13:02:48.589, True, 1.685, 0.137713
2023/06/20 13:02:49.093, True, 1.990, 0.141146
2023/06/20 13:02:49.588, True, 1.686, 0.140841
2023/06/20 13:02:50.092, True, 1.657, 0.140612
2023/06/20 13:02:50.597, True, 1.658, 0.139162
2023/06/20 13:02:51.093, True, 1.685, 0.139544
2023/06/20 13:02:51.596, True, 1.658, 0.141604
2023/06/20 13:02:52.100, True, 1.658, 0.140917
2023/06/20 13:02:52.596, True, 1.684, 0.141299
2023/06/20 13:02:53.101, True, 1.658, 0.139467
2023/06/20 13:02:53.604, True, 1.658, 0.138323
2023/06/20 13:02:54.100, True, 1.684, 0.138399
2023/06/20 13:02:54.604, True, 1.990, 0.140307
2023/06/20 13:02:55.108, True, 1.658, 0.141604
2023/06/20 13:02:55.605, True, 1.685, 0.138323
2023/06/20 13:02:56.108, True, 1.658, 0.139849
2023/06/20 13:02:56.611, True, 1.658, 0.137865
2023/06/20 13:02:57.108, True, 1.686, 0.139162
2023/06/20 13:02:57.613, True, 1.657, 0.139467
2023/06/20 13:02:58.108, True, 1.687, 0.140536
2023/06/20 13:02:58.612, True, 1.656, 0.137179
2023/06/20 13:02:59.116, True, 1.658, 0.141909
2023/06/20 13:02:59.620, True, 1.659, 0.139849
2023/06/20 13:03:00.116, True, 1.684, 0.140993
2023/06/20 13:03:00.620, True, 1.989, 0.138476
2023/06/20 13:03:01.116, True, 1.685, 0.137789
2023/06/20 13:03:01.621, True, 1.659, 0.140078
2023/06/20 13:03:02.124, True, 1.657, 0.140307
2023/06/20 13:03:02.620, True, 1.689, 0.138170
2023/06/20 13:03:03.124, True, 1.657, 0.138094
2023/06/20 13:03:03.628, True, 1.656, 0.140841
2023/06/20 13:03:04.124, True, 1.684, 0.139773
2023/06/20 13:03:04.628, True, 1.660, 0.140764
2023/06/20 13:03:05.132, True, 1.656, 0.137484
2023/06/20 13:03:05.628, True, 1.687, 0.139773
2023/06/20 13:03:06.132, True, 1.990, 0.137407
2023/06/20 13:03:06.636, True, 1.658, 0.137102
2023/06/20 13:03:07.132, True, 1.684, 0.138781
2023/06/20 13:03:07.636, True, 1.989, 0.139010
2023/06/20 13:03:08.140, True, 1.661, 0.140002
2023/06/20 13:03:08.636, True, 1.682, 0.139544
2023/06/20 13:03:09.140, True, 1.657, 0.137407
2023/06/20 13:03:09.644, True, 1.990, 0.137331
2023/06/20 13:03:10.140, True, 1.687, 0.138399
2023/06/20 13:03:10.644, True, 1.658, 0.139010
2023/06/20 13:03:11.149, True, 1.655, 0.138552
2023/06/20 13:03:11.644, True, 1.688, 0.142061
2023/06/20 13:03:12.148, True, 1.655, 0.140612
2023/06/20 13:03:12.652, True, 1.993, 0.137331
2023/06/20 13:03:13.148, True, 1.345, 0.138552
2023/06/20 13:03:13.652, True, 1.658, 0.139391
2023/06/20 13:03:14.156, True, 1.993, 0.138781
2023/06/20 13:03:14.652, True, 1.682, 0.137942
2023/06/20 13:03:15.156, True, 1.658, 0.139315
2023/06/20 13:03:15.660, True, 1.658, 0.137179
2023/06/20 13:03:16.156, True, 1.685, 0.139696
2023/06/20 13:03:16.660, True, 1.658, 0.139696
2023/06/20 13:03:17.164, True, 1.658, 0.138781
2023/06/20 13:03:17.660, True, 1.685, 0.138933
2023/06/20 13:03:18.164, True, 1.660, 0.136950
2023/06/20 13:03:18.668, True, 1.656, 0.137942
2023/06/20 13:03:19.164, True, 1.685, 0.136568
2023/06/20 13:03:19.668, True, 1.658, 0.139391
2023/06/20 13:03:20.164, True, 1.684, 0.138323
2023/06/20 13:03:20.668, True, 1.658, 0.138933
2023/06/20 13:03:21.172, True, 1.658, 0.138781
2023/06/20 13:03:21.668, True, 1.685, 0.141070
2023/06/20 13:03:22.172, True, 1.658, 0.138933
2023/06/20 13:03:22.676, True, 1.658, 0.138628
2023/06/20 13:03:23.180, True, 1.658, 0.140459
2023/06/20 13:03:23.676, True, 1.684, 0.140002
2023/06/20 13:03:24.180, True, 1.658, 0.138323
2023/06/20 13:03:24.676, True, 1.685, 0.137789
2023/06/20 13:03:25.180, True, 1.990, 0.137331
2023/06/20 13:03:25.684, True, 1.658, 0.138933
2023/06/20 13:03:26.188, True, 1.659, 0.137865
2023/06/20 13:03:26.684, True, 1.684, 0.137865
2023/06/20 13:03:27.188, True, 1.658, 0.138247
2023/06/20 13:03:27.693, True, 1.658, 0.138933
2023/06/20 13:03:28.196, True, 1.990, 0.136950
2023/06/20 13:03:28.692, True, 1.685, 0.137560
2023/06/20 13:03:29.196, True, 1.659, 0.138323
2023/06/20 13:03:29.700, True, 1.657, 0.137331
2023/06/20 13:03:30.196, True, 1.685, 0.137484
2023/06/20 13:03:30.700, True, 1.659, 0.137713
2023/06/20 13:03:31.204, True, 1.990, 0.138933
2023/06/20 13:03:31.700, True, 1.683, 0.138018
2023/06/20 13:03:32.204, True, 1.658, 0.138170
2023/06/20 13:03:32.708, True, 1.658, 0.137713
2023/06/20 13:03:33.204, True, 1.688, 0.138857
2023/06/20 13:03:33.708, True, 1.654, 0.140002
2023/06/20 13:03:34.212, True, 1.658, 0.137560
2023/06/20 13:03:34.708, True, 2.022, 0.139315
2023/06/20 13:03:35.212, True, 1.658, 0.137865
2023/06/20 13:03:35.716, True, 1.658, 0.139010
2023/06/20 13:03:36.212, True, 1.684, 0.138857
2023/06/20 13:03:36.716, True, 1.990, 0.139315
2023/06/20 13:03:37.220, True, 1.658, 0.136187
2023/06/20 13:03:37.716, True, 1.685, 0.137789
2023/06/20 13:03:38.220, True, 1.990, 0.139849
2023/06/20 13:03:38.724, True, 1.658, 0.138705
2023/06/20 13:03:39.220, True, 1.687, 0.138705
2023/06/20 13:03:39.724, True, 1.988, 0.137636
2023/06/20 13:03:40.228, True, 1.659, 0.139162
2023/06/20 13:03:40.724, True, 1.683, 0.137713
2023/06/20 13:03:41.228, True, 1.658, 0.137636
2023/06/20 13:03:41.732, True, 1.989, 0.137560
2023/06/20 13:03:42.228, True, 1.688, 0.137713
2023/06/20 13:03:42.733, True, 1.655, 0.137484
2023/06/20 13:03:43.236, True, 1.661, 0.137102
2023/06/20 13:03:43.732, True, 1.682, 0.139773
2023/06/20 13:03:44.236, True, 1.658, 0.137331
2023/06/20 13:03:44.740, True, 1.989, 0.138933
2023/06/20 13:03:45.236, True, 1.685, 0.137865
2023/06/20 13:03:45.740, True, 1.658, 0.136873
2023/06/20 13:03:46.244, True, 1.658, 0.137026
2023/06/20 13:03:46.740, True, 1.685, 0.137179
2023/06/20 13:03:47.244, True, 1.658, 0.138628
2023/06/20 13:03:47.748, True, 1.990, 0.136645
2023/06/20 13:03:48.244, True, 1.685, 0.136873
2023/06/20 13:03:48.748, True, 1.658, 0.138781
2023/06/20 13:03:49.252, True, 1.660, 0.137102
2023/06/20 13:03:49.748, True, 1.682, 0.136873
2023/06/20 13:03:50.252, True, 1.990, 0.138247
2023/06/20 13:03:50.756, True, 1.658, 0.137942
2023/06/20 13:03:51.252, True, 1.688, 0.138628
2023/06/20 13:03:51.756, True, 1.656, 0.137942
2023/06/20 13:03:52.260, True, 1.989, 0.135729
2023/06/20 13:03:52.756, True, 1.685, 0.137179
2023/06/20 13:03:53.260, True, 1.660, 0.136263
2023/06/20 13:03:53.756, True, 1.683, 0.137331
2023/06/20 13:03:54.260, True, 1.658, 0.134508
2023/06/20 13:03:54.764, True, 1.658, 0.135653
2023/06/20 13:03:55.260, True, 2.022, 0.136645
2023/06/20 13:03:55.764, True, 1.658, 0.136950
2023/06/20 13:03:56.267, True, 1.659, 0.136721
2023/06/20 13:03:56.764, True, 1.683, 0.136873
2023/06/20 13:03:57.268, True, 1.659, 0.138933
2023/06/20 13:03:57.772, True, 1.659, 0.136721
2023/06/20 13:03:58.268, True, 1.683, 0.136797
2023/06/20 13:03:58.772, True, 1.990, 0.136950
2023/06/20 13:03:59.276, True, 1.658, 0.137026
2023/06/20 13:03:59.780, True, 1.658, 0.137026
2023/06/20 13:04:00.276, True, 1.686, 0.137331
2023/06/20 13:04:00.780, True, 1.989, 0.134737
2023/06/20 13:04:01.284, True, 1.658, 0.136187
2023/06/20 13:04:01.780, True, 1.684, 0.137331
2023/06/20 13:04:02.284, True, 1.658, 0.136950
2023/06/20 13:04:02.788, True, 1.989, 0.136416
2023/06/20 13:04:03.284, True, 1.685, 0.137636
2023/06/20 13:04:03.788, True, 1.658, 0.138323
2023/06/20 13:04:04.292, True, 1.658, 0.138170
2023/06/20 13:04:04.788, True, 2.022, 0.138323
2023/06/20 13:04:05.292, True, 1.659, 0.138323
2023/06/20 13:04:05.796, True, 1.657, 0.138094
2023/06/20 13:04:06.292, True, 1.685, 0.139391
2023/06/20 13:04:06.796, True, 1.659, 0.138247
2023/06/20 13:04:07.292, True, 1.688, 0.137102
2023/06/20 13:04:07.796, True, 1.985, 0.136339
2023/06/20 13:04:08.300, True, 1.659, 0.136492
2023/06/20 13:04:08.796, True, 1.685, 0.137255
2023/06/20 13:04:09.300, True, 1.657, 0.136416
2023/06/20 13:04:09.804, True, 1.659, 0.139162
2023/06/20 13:04:10.299, True, 1.685, 0.138476
2023/06/20 13:04:10.804, True, 1.656, 0.135653
2023/06/20 13:04:11.308, True, 1.992, 0.138094
2023/06/20 13:04:11.804, True, 1.683, 0.135119
2023/06/20 13:04:12.308, True, 1.657, 0.137026
2023/06/20 13:04:12.812, True, 1.660, 0.138170